"Pseudo-MPEC" for C14V6U5

Created 2025 Jul 2 15:35:04 UT using Find_Orb

Click here for an explanation of pseudo-MPECs

 
 Astrometry: 
     C14V6U5* C2025 06 29.31845416 55 35.238+06 19 22.26   ~6T8o 21.25GVNEOCPV00
     C14V6U5  C2025 06 29.32405516 55 39.364+06 19 19.60   ~6T8o 21.17GVNEOCPV00
     C14V6U5  C2025 06 29.32964316 55 43.388+06 19 17.58   ~6T8o 21.53GVNEOCPV00
     C14V6U5  C2025 06 29.33522216 55 47.492+06 19 14.99   ~6T8o 21.48GVNEOCPV00
     C14V6U5 mC2025 06 29.38551516 56 24.508+06 18 52.45   ~6T9Z 21.09GVNEOCPV00
     C14V6U5 mC2025 06 29.38613716 56 24.954+06 18 52.13   ~6T9Z 21.44GVNEOCPV00
     C14V6U5 mC2025 06 29.38675816 56 25.426+06 18 52.02   ~6T9Z 20.94GVNEOCPV00
     C14V6U5  C2025 06 30.16477017 06 21.790+06 13 07.70   ~6U4Z       VNEOCP291
     C14V6U5  C2025 06 30.17001017 06 25.530+06 13 05.20   ~6U4Z 21.4 RVNEOCP291
     C14V6U5  C2025 06 30.17536017 06 29.210+06 13 02.60   ~6U4Z       VNEOCP291
     C14V6U5 KB2025 07 01.15118 17 18 12.266+06 04 09.77   ~7155 20.6 GXNEOCP734
     C14V6U5 KB2025 07 01.18166 17 18 32.477+06 03 52.67   ~7155 21.0 GXNEOCP734

Station data:
(291) LPL/Spacewatch II  (N31.961669 W111.599905)  US/Arizona.  Observers J.
   V. Scotti, R. S. McMillan. 1.8-m f/2.7 reflector + CCD.
(734) Farpoint Observatory, Eskridge  (N38.890239 W96.002420)  US/Kansas.
   Observer G. Hug. 0.69-m reflector + CCD.
(V00) Kitt Peak-Bok  (N31.963125 W111.600190)  US/Arizona.  Observers T. A.
   Pruyne, B. M. Africano, E. J. Christensen, G. A. Farneth, D. C. Fuls, A.
   R. Gibbs, A. D. Grauer, H. Gröller, J. A. Johnson, R. A. Kowalski, S. M.
   Larson, G. J. Leonard, D. Rankin, R. L. Seaman, F. C. Shelly, K. W.
   Wierzchoś. 2.25-m reflector + 4x4K mosaic CCD.

Orbital elements:  C14V6U5
   Perihelion 2025 Jun 9.03678 +/- 0.0229 TT =  0:52:57 (JD 2460835.53678)
Epoch 2025 Jul  1.0 TT = JDT 2460857.5   Earth MOID: 0.0328      AutoNEOCP
M   7.97272269 +/- 0.10             (J2000 ecliptic)
n   0.36300336 +/- 0.00504          Peri.    7.80706 +/- 0.07
a   1.94623650 +/- 0.018            Node   246.09207 +/- 0.028
e   0.4624045 +/- 0.00487           Incl.    3.52815 +/- 0.031
P   2.715/991.708d         H 25.68  G  0.15   U  9.2
q 1.04628786 +/- 0.000218    Q 2.84618515 +/- 0.0358
From 12 observations 2025 June 29-July 1 (44.7 hr); mean residual 0".24
Residuals in arcseconds: 
250629 V00  .03-  .03+    250629 V00  .12+  .01+    250630 291  .65+  .02-    
250629 V00  .48+  .23-    250629 V00  .09-  .03-    250630 291  .34-  .20-    
250629 V00  .44-  .16+    250629 V00  .09+  .15+    250701 734  .16+  .04+    
250629 V00  .12-  .00     250630 291  .33-  .13+    250701 734  .15-  .01-    

Ephemerides (geocentric):
Date (UTC) HH   RA             Dec           delta  r     elong  mag " sig PA
---- --------  ------------   ------------  ------ ------ -----  --- --------
2025 07 02 16  17 35 10.002   +05 49 10.11  .07543 1.0802 146.3 21.6 2.54  84
2025 07 02 17  17 35 36.785   +05 48 41.27  .07553 1.0803 146.4 21.6 2.66  84
2025 07 02 18  17 36 03.500   +05 48 12.33  .07564 1.0805 146.4 21.6 2.77  85
2025 07 02 19  17 36 30.149   +05 47 43.27  .07574 1.0806 146.5 21.6 2.88  85
2025 07 02 20  17 36 56.729   +05 47 14.11  .07584 1.0807 146.5 21.6 3.00  86
2025 07 02 21  17 37 23.242   +05 46 44.85  .07594 1.0808 146.5 21.6 3.12  86
2025 07 02 22  17 37 49.688   +05 46 15.48  .07604 1.0809 146.6 21.6 3.24  86
2025 07 02 23  17 38 16.067   +05 45 46.00  .07615 1.0810 146.6 21.6 3.36  87
2025 07 03 00  17 38 42.378   +05 45 16.42  .07625 1.0812 146.7 21.6 3.49  87
2025 07 03 01  17 39 08.622   +05 44 46.74  .07635 1.0813 146.7 21.6 3.61  87
2025 07 03 02  17 39 34.799   +05 44 16.96  .07646 1.0814 146.8 21.6 3.74  88
2025 07 03 03  17 40 00.909   +05 43 47.08  .07656 1.0815 146.8 21.6 3.87  88
2025 07 03 04  17 40 26.951   +05 43 17.10  .07666 1.0816 146.8 21.6 4.00  88
2025 07 03 05  17 40 52.927   +05 42 47.02  .07677 1.0818 146.9 21.6 4.13  89
2025 07 03 06  17 41 18.835   +05 42 16.85  .07687 1.0819 146.9 21.6 4.26  89
2025 07 03 07  17 41 44.677   +05 41 46.58  .07698 1.0820 147.0 21.6 4.40  89
2025 07 03 08  17 42 10.452   +05 41 16.21  .07708 1.0821 147.0 21.6 4.54  89
2025 07 03 09  17 42 36.160   +05 40 45.75  .07719 1.0822 147.0 21.6 4.68  89
2025 07 03 10  17 43 01.801   +05 40 15.19  .07730 1.0824 147.1 21.6 4.82  90
2025 07 03 11  17 43 27.375   +05 39 44.54  .07740 1.0825 147.1 21.6 4.96  90
2025 07 03 12  17 43 52.883   +05 39 13.80  .07751 1.0826 147.2 21.6 5.10  90
2025 07 03 13  17 44 18.324   +05 38 42.97  .07762 1.0827 147.2 21.6 5.24  90
2025 07 03 14  17 44 43.699   +05 38 12.04  .07772 1.0828 147.3 21.6 5.39  90
2025 07 03 15  17 45 09.007   +05 37 41.03  .07783 1.0830 147.3 21.6 5.54  91
2025 07 03 16  17 45 34.249   +05 37 09.93  .07794 1.0831 147.3 21.6 5.69  91
2025 07 03 17  17 45 59.425   +05 36 38.75  .07805 1.0832 147.4 21.6 5.84  91
2025 07 03 18  17 46 24.534   +05 36 07.47  .07816 1.0833 147.4 21.6 5.99  91
2025 07 03 19  17 46 49.577   +05 35 36.11  .07826 1.0834 147.5 21.6 6.14  91
2025 07 03 20  17 47 14.555   +05 35 04.67  .07837 1.0836 147.5 21.6 6.29  91
2025 07 03 21  17 47 39.466   +05 34 33.14  .07848 1.0837 147.5 21.6 6.45  92
2025 07 03 22  17 48 04.311   +05 34 01.52  .07859 1.0838 147.6 21.6 6.61  92
2025 07 03 23  17 48 29.090   +05 33 29.83  .07870 1.0839 147.6 21.6 6.77  92
2025 07 04 00  17 48 53.804   +05 32 58.05  .07881 1.0840 147.6 21.6 6.92  92
2025 07 04 01  17 49 18.452   +05 32 26.19  .07892 1.0842 147.7 21.6 7.09  92
2025 07 04 02  17 49 43.034   +05 31 54.25  .07903 1.0843 147.7 21.6 7.25  92
2025 07 04 03  17 50 07.551   +05 31 22.24  .07915 1.0844 147.8 21.7 7.41  92
2025 07 04 04  17 50 32.002   +05 30 50.14  .07926 1.0845 147.8 21.7 7.57  92
2025 07 04 05  17 50 56.388   +05 30 17.97  .07937 1.0847 147.8 21.7 7.74  92
2025 07 04 06  17 51 20.709   +05 29 45.72  .07948 1.0848 147.9 21.7 7.91  93
2025 07 04 07  17 51 44.965   +05 29 13.39  .07959 1.0849 147.9 21.7 8.07  93
2025 07 04 08  17 52 09.155   +05 28 40.99  .07971 1.0850 148.0 21.7 8.24  93
2025 07 04 09  17 52 33.281   +05 28 08.51  .07982 1.0852 148.0 21.7 8.41  93
2025 07 04 10  17 52 57.342   +05 27 35.96  .07993 1.0853 148.0 21.7 8.58  93
2025 07 04 11  17 53 21.337   +05 27 03.34  .08004 1.0854 148.1 21.7 8.76  93
2025 07 04 12  17 53 45.269   +05 26 30.65  .08016 1.0855 148.1 21.7 8.93  93
2025 07 04 13  17 54 09.135   +05 25 57.88  .08027 1.0856 148.1 21.7 9.10  93
2025 07 04 14  17 54 32.937   +05 25 25.04  .08039 1.0858 148.2 21.7 9.28  93
2025 07 04 15  17 54 56.675   +05 24 52.14  .08050 1.0859 148.2 21.7 9.46  93